TimeCDT,TemperatureF,Dew PointF,Humidity,Sea Level PressureIn,VisibilityMPH,Wind Direction,Wind SpeedMPH,Gust SpeedMPH,PrecipitationIn,Events,Conditions,WindDirDegrees,DateUTC
12:51 AM,62.1,45.0,53,29.84,10.0,NE,4.6,-,N/A,,Mostly Cloudy,50,2012-10-01 05:51:00
1:51 AM,60.1,46.0,60,29.84,10.0,NE,5.8,-,N/A,,Mostly Cloudy,50,2012-10-01 06:51:00
2:51 AM,59.0,45.0,60,29.81,10.0,NE,6.9,-,N/A,,Overcast,40,2012-10-01 07:51:00
3:51 AM,59.0,45.0,60,29.81,10.0,ENE,5.8,-,N/A,,Overcast,60,2012-10-01 08:51:00
4:51 AM,57.9,46.0,65,29.80,10.0,NE,5.8,-,N/A,,Overcast,50,2012-10-01 09:51:00
5:51 AM,57.9,46.0,65,29.81,10.0,NNE,4.6,-,N/A,,Overcast,30,2012-10-01 10:51:00
6:51 AM,55.9,46.9,72,29.81,10.0,North,3.5,-,N/A,,Overcast,350,2012-10-01 11:51:00
7:51 AM,57.0,46.9,69,29.81,10.0,North,5.8,-,N/A,,Mostly Cloudy,360,2012-10-01 12:51:00
8:51 AM,57.0,46.9,69,29.82,10.0,North,5.8,-,N/A,,Mostly Cloudy,10,2012-10-01 13:51:00
9:51 AM,57.9,48.0,70,29.83,10.0,North,4.6,-,N/A,,Overcast,10,2012-10-01 14:51:00
10:51 AM,59.0,48.9,69,29.81,10.0,NNW,6.9,-,N/A,,Overcast,340,2012-10-01 15:51:00
11:51 AM,61.0,48.9,64,29.81,10.0,North,9.2,-,N/A,,Overcast,360,2012-10-01 16:51:00
12:51 PM,64.9,48.0,54,29.79,10.0,North,10.4,16.1,N/A,,Overcast,350,2012-10-01 17:51:00
1:51 PM,64.9,46.0,50,29.77,10.0,North,13.8,-,N/A,,Overcast,10,2012-10-01 18:51:00
2:51 PM,64.9,45.0,48,29.76,10.0,North,13.8,19.6,N/A,,Overcast,10,2012-10-01 19:51:00
3:51 PM,64.9,45.0,48,29.76,10.0,North,12.7,-,N/A,,Overcast,10,2012-10-01 20:51:00
4:51 PM,64.4,46.4,52,29.78,10.0,North,10.4,-,N/A,,Mostly Cloudy,360,2012-10-01 21:51:00
5:51 PM,64.0,46.0,52,29.77,10.0,North,9.2,-,N/A,,Mostly Cloudy,360,2012-10-01 22:51:00
6:51 PM,63.0,45.0,52,29.77,10.0,NNE,6.9,-,N/A,,Mostly Cloudy,20,2012-10-01 23:51:00
7:51 PM,61.0,46.0,58,29.79,10.0,NNW,5.8,-,N/A,,Mostly Cloudy,330,2012-10-02 00:51:00
8:51 PM,60.1,46.0,60,29.81,10.0,NW,5.8,-,N/A,,Overcast,320,2012-10-02 01:51:00
9:51 PM,59.0,46.0,62,29.81,10.0,NNW,6.9,-,N/A,,Overcast,340,2012-10-02 02:51:00
10:51 PM,59.0,45.0,60,29.81,10.0,NNW,5.8,-,N/A,,Overcast,330,2012-10-02 03:51:00